This is the latest recevied weather packets stored in our database for station/object W4MLN-1. If no packets are shown the sender has not sent any weather packets the latest 10 day(s).
| Time | Temp. | Humidity | Pressure | Rain* | Wind** | Luminosity | Snow |
|---|---|---|---|---|---|---|---|
| 1777832195 | 12.78° C | 33% | 1017.3 hPa | 0 mm | - | 1002 W/m² | - |
| 1777831894 | 12.78° C | 35% | 1017.3 hPa | 0 mm | - | 1006 W/m² | - |
| 1777831594 | 12.22° C | 34% | 1017.3 hPa | 0 mm | - | 1010 W/m² | - |
| 1777831294 | 12.22° C | 34% | 1017.3 hPa | 0 mm | - | 1014 W/m² | - |
| 1777830995 | 12.22° C | 37% | 1017.4 hPa | 0 mm | - | 1019 W/m² | - |
| 1777830694 | 11.67° C | 40% | 1017.4 hPa | 0 mm | - | 1021 W/m² | - |
| 1777830395 | 11.67° C | 38% | 1017.4 hPa | 0 mm | - | 1024 W/m² | - |
| 1777830094 | 11.67° C | 43% | 1017.5 hPa | 0 mm | - | 1024 W/m² | - |
| 1777829792 | 11.67° C | 38% | 1017.5 hPa | 0 mm | - | 1028 W/m² | - |
| 1777829492 | 11.67° C | 38% | 1017.6 hPa | 0 mm | - | 1028 W/m² | - |
| 1777829191 | 11.67° C | 36% | 1017.7 hPa | 0 mm | - | 1027 W/m² | - |
| 1777828892 | 11.67° C | 40% | 1017.7 hPa | 0 mm | - | 1026 W/m² | - |
| 1777828592 | 11.11° C | 35% | 1017.8 hPa | 0 mm | - | 1027 W/m² | - |
| 1777828292 | 11.11° C | 37% | 1017.9 hPa | 0 mm | - | 1024 W/m² | - |
| 1777827993 | 11.11° C | 35% | 1018 hPa | 0 mm | - | 1022 W/m² | - |
| 1777827692 | 11.11° C | 42% | 1018 hPa | 0 mm | - | 1018 W/m² | - |
| 1777827392 | 11.11° C | 40% | 1018.2 hPa | 0 mm | - | 1015 W/m² | - |
| 1777827092 | 10.56° C | 42% | 1018.3 hPa | 0 mm | - | 1011 W/m² | - |
| 1777826792 | 10° C | 39% | 1018.2 hPa | 0 mm | - | 1010 W/m² | - |
| 1777826489 | 10° C | 40% | 1018.3 hPa | 0 mm | - | 1005 W/m² | - |
| 1777826190 | 10° C | 38% | 1018.3 hPa | 0 mm | - | 1001 W/m² | - |
| 1777825886 | 10.56° C | 39% | 1018.5 hPa | 0 mm | - | 993 W/m² | - |
| 1777825587 | 10° C | 41% | 1018.5 hPa | 0 mm | - | 987 W/m² | - |
| 1777825286 | 10° C | 39% | 1018.5 hPa | 0 mm | - | 981 W/m² | - |
| 1777824987 | 10° C | 36% | 1018.5 hPa | 0 mm | - | 973 W/m² | - |
* Rain latest hour (hover to see other rain measurements)
** Current wind speed in m/s (hover to see current wind gust speed)